ETD5641 OMDB-LTFM

Flight info

Callsign ETD5641
Flight time N/A
Altitude 38000
Route SENPA N571 ALPOB L768 VATIM L550 NOVPA J981 DATOK L550 SERMA/N0488F400 L550 GENIV L324 SAFTA DCT TOMBI UM855 LEMDA UA16 KFK UM855 SISPI
Aircraft A35K/H-SDE2E3GHIJ3J4J5LM1ORWXY/LB1D1

Departure

Time 2026-04-25 13:31
Airport Dubai International Airport (OMDB)

Arrival

Time N/A
Airport İstanbul Airport (LTFM)
Time Latitude Longitude Altitude Speed Heading
2026-04-25 12:46 25.24839 55.36373 29 ft 0 kts 210°
2026-04-25 13:12 25.24839 55.36374 29 ft 2 kts 210°
2026-04-25 13:12 25.24854 55.36383 28 ft 2 kts 210°
2026-04-25 13:12 25.24863 55.36389 27 ft 2 kts 210°
2026-04-25 13:13 25.24882 55.36401 26 ft 2 kts 210°
2026-04-25 13:13 25.24896 55.36411 28 ft 2 kts 230°
2026-04-25 13:13 25.24904 55.36427 26 ft 2 kts 261°
2026-04-25 13:13 25.24904 55.36445 26 ft 2 kts 280°
2026-04-25 13:14 25.24899 55.36462 27 ft 2 kts 301°
2026-04-25 13:14 25.24891 55.36477 28 ft 1 kts 302°
2026-04-25 13:14 25.24889 55.36479 28 ft 0 kts 302°
2026-04-25 13:19 25.24897 55.36465 27 ft 6 kts 301°
2026-04-25 13:20 25.24943 55.36381 28 ft 11 kts 301°
2026-04-25 13:20 25.24987 55.36300 27 ft 13 kts 301°
2026-04-25 13:20 25.25040 55.36204 30 ft 16 kts 302°
2026-04-25 13:20 25.25103 55.36097 25 ft 17 kts 313°
2026-04-25 13:21 25.25206 55.36018 22 ft 19 kts 328°
2026-04-25 13:21 25.25303 55.35916 21 ft 18 kts 303°
2026-04-25 13:21 25.25372 55.35792 19 ft 20 kts 301°
2026-04-25 13:21 25.25448 55.35657 18 ft 21 kts 301°
2026-04-25 13:22 25.25524 55.35516 19 ft 22 kts 301°
2026-04-25 13:22 25.25602 55.35376 20 ft 21 kts 302°
2026-04-25 13:22 25.25658 55.35277 25 ft 0 kts 301°
2026-04-25 13:23 25.25658 55.35276 25 ft 0 kts 301°
2026-04-25 13:23 25.25665 55.35264 23 ft 3 kts 301°
2026-04-25 13:24 25.25680 55.35237 24 ft 6 kts 304°
2026-04-25 13:24 25.25730 55.35212 26 ft 11 kts
2026-04-25 13:24 25.25817 55.35252 21 ft 16 kts 31°
2026-04-25 13:24 25.25918 55.35320 28 ft 18 kts 34°
2026-04-25 13:25 25.25969 55.35377 28 ft 0 kts 57°
2026-04-25 13:25 25.25969 55.35378 28 ft 1 kts 57°
2026-04-25 13:25 25.25981 55.35407 25 ft 9 kts 71°
2026-04-25 13:25 25.25983 55.35527 26 ft 20 kts 108°
2026-04-25 13:26 25.25901 55.35690 22 ft 28 kts 122°
2026-04-25 13:26 25.25797 55.35875 24 ft 28 kts 121°
2026-04-25 13:26 25.25704 55.36042 29 ft 25 kts 121°
2026-04-25 13:26 25.25617 55.36199 29 ft 24 kts 121°
2026-04-25 13:27 25.25526 55.36361 27 ft 25 kts 121°
2026-04-25 13:27 25.25434 55.36530 28 ft 26 kts 122°
2026-04-25 13:27 25.25336 55.36706 28 ft 27 kts 122°
2026-04-25 13:27 25.25239 55.36880 32 ft 26 kts 120°
2026-04-25 13:28 25.25145 55.37051 37 ft 25 kts 123°
2026-04-25 13:28 25.25116 55.37102 39 ft 24 kts 122°
2026-04-25 13:28 25.24972 55.37365 44 ft 24 kts 121°
2026-04-25 13:28 25.24884 55.37519 44 ft 24 kts 121°
2026-04-25 13:29 25.24795 55.37684 45 ft 25 kts 121°
2026-04-25 13:29 25.24713 55.37833 45 ft 21 kts 122°
2026-04-25 13:29 25.24693 55.37961 46 ft 15 kts 48°
2026-04-25 13:30 25.24848 55.37945 46 ft 15 kts 300°
2026-04-25 13:30 25.24986 55.37695 45 ft 71 kts 301°
2026-04-25 13:30 25.25355 55.37034 40 ft 130 kts 302°
2026-04-25 13:31 25.26543 55.34916 849 ft 167 kts 302°
2026-04-25 13:31 25.27152 55.33802 1473 ft 171 kts 302°
2026-04-25 13:31 25.27762 55.32660 2085 ft 176 kts 302°
2026-04-25 13:31 25.28436 55.31450 2374 ft 195 kts 303°
2026-04-25 13:32 25.29180 55.30098 2629 ft 217 kts 300°
2026-04-25 13:32 25.29652 55.28463 3063 ft 229 kts 281°
2026-04-25 13:32 25.29822 55.26694 3624 ft 233 kts 276°
2026-04-25 13:32 25.29947 55.24930 4260 ft 233 kts 275°
2026-04-25 13:33 25.30066 55.23111 4704 ft 244 kts 274°
2026-04-25 13:33 25.30160 55.21163 4983 ft 263 kts 273°
2026-04-25 13:33 25.30252 55.19119 5562 ft 268 kts 273°
2026-04-25 13:33 25.30316 55.17747 6012 ft 270 kts 273°
2026-04-25 13:34 25.30448 55.14949 6909 ft 274 kts 272°
2026-04-25 13:34 25.30549 55.12836 7573 ft 277 kts 272°
2026-04-25 13:34 25.30651 55.10724 8257 ft 280 kts 272°
2026-04-25 13:34 25.30756 55.08559 8981 ft 283 kts 272°
2026-04-25 13:35 25.30862 55.06370 9721 ft 286 kts 272°
2026-04-25 13:35 25.30969 55.04150 10343 ft 294 kts 272°
2026-04-25 13:35 25.31081 55.01823 10661 ft 312 kts 272°
2026-04-25 13:35 25.31198 54.99360 10946 ft 330 kts 272°
2026-04-25 13:36 25.31322 54.96763 11221 ft 346 kts 272°
2026-04-25 13:36 25.31452 54.94047 11488 ft 361 kts 272°
2026-04-25 13:36 25.31586 54.91220 11788 ft 374 kts 272°
2026-04-25 13:36 25.31723 54.88324 12269 ft 380 kts 272°
2026-04-25 13:37 25.31862 54.85395 12801 ft 384 kts 272°
2026-04-25 13:37 25.32002 54.82432 13351 ft 388 kts 272°
2026-04-25 13:37 25.32141 54.79446 13876 ft 391 kts 271°
2026-04-25 13:37 25.32280 54.76466 14403 ft 393 kts 271°
2026-04-25 13:38 25.32421 54.73442 14959 ft 395 kts 271°
2026-04-25 13:38 25.32561 54.70395 15513 ft 397 kts 271°
2026-04-25 13:38 25.32702 54.67344 16062 ft 398 kts 271°
2026-04-25 13:38 25.32842 54.64271 16605 ft 401 kts 271°
2026-04-25 13:39 25.32983 54.61183 17154 ft 403 kts 271°
2026-04-25 13:39 25.33123 54.58081 17693 ft 405 kts 271°
2026-04-25 13:39 25.33282 54.55004 18211 ft 408 kts 273°
2026-04-25 13:39 25.33745 54.51894 18699 ft 411 kts 281°
2026-04-25 13:40 25.34449 54.48821 19206 ft 413 kts 283°
2026-04-25 13:40 25.35272 54.45767 19719 ft 415 kts 285°
2026-04-25 13:40 25.36144 54.42716 20241 ft 417 kts 285°
2026-04-25 13:40 25.37026 54.39656 20762 ft 418 kts 285°
2026-04-25 13:41 25.37897 54.36582 21284 ft 420 kts 285°
2026-04-25 13:41 25.38757 54.33487 21806 ft 421 kts 284°
2026-04-25 13:41 25.39320 54.31432 22155 ft 422 kts 284°
2026-04-25 13:41 25.40166 54.28312 22677 ft 424 kts 284°
2026-04-25 13:42 25.41000 54.25177 23204 ft 425 kts 283°
2026-04-25 13:42 25.41793 54.22026 23669 ft 427 kts 283°
2026-04-25 13:42 25.42570 54.18848 24054 ft 430 kts 282°
2026-04-25 13:42 25.43347 54.15645 24452 ft 433 kts 282°
2026-04-25 13:43 25.44390 54.11366 25016 ft 436 kts 282°
2026-04-25 13:43 25.44928 54.09173 25319 ft 438 kts 283°
2026-04-25 13:43 25.45725 54.05907 25764 ft 441 kts 282°
2026-04-25 13:43 25.46507 54.02653 26216 ft 444 kts 282°
2026-04-25 13:44 25.47300 53.99333 26671 ft 447 kts 282°
2026-04-25 13:44 25.48097 53.95994 27118 ft 450 kts 282°
2026-04-25 13:44 25.48900 53.92633 27554 ft 453 kts 282°
2026-04-25 13:44 25.49710 53.89246 28002 ft 456 kts 282°
2026-04-25 13:45 25.50246 53.87005 28287 ft 458 kts 282°
2026-04-25 13:45 25.51344 53.82420 28855 ft 462 kts 282°
2026-04-25 13:45 25.52168 53.78973 29261 ft 464 kts 282°
2026-04-25 13:45 25.52997 53.75506 29667 ft 467 kts 282°
2026-04-25 13:46 25.53835 53.72016 30019 ft 470 kts 282°
2026-04-25 13:46 25.54668 53.68541 30344 ft 472 kts 282°
2026-04-25 13:46 25.55510 53.65020 30705 ft 473 kts 282°
2026-04-25 13:46 25.56352 53.61497 31226 ft 470 kts 282°
2026-04-25 13:47 25.57186 53.58010 31802 ft 466 kts 282°
2026-04-25 13:47 25.58010 53.54554 32366 ft 462 kts 282°
2026-04-25 13:47 25.58828 53.51124 32898 ft 459 kts 282°
2026-04-25 13:47 25.59639 53.47713 33412 ft 456 kts 281°
2026-04-25 13:48 25.60445 53.44322 33912 ft 454 kts 281°
2026-04-25 13:48 25.61234 53.40997 34346 ft 451 kts 282°
2026-04-25 13:48 25.62026 53.37648 34832 ft 446 kts 282°
2026-04-25 13:48 25.62808 53.34338 35324 ft 442 kts 282°
2026-04-25 13:49 25.63580 53.31059 35798 ft 438 kts 283°
2026-04-25 13:49 25.64346 53.27802 36225 ft 434 kts 283°
2026-04-25 13:49 25.65107 53.24567 36629 ft 431 kts 283°
2026-04-25 13:49 25.65859 53.21362 37048 ft 428 kts 283°
2026-04-25 13:50 25.66606 53.18182 37462 ft 424 kts 284°
2026-04-25 13:50 25.67346 53.15025 37823 ft 422 kts 284°
2026-04-25 13:50 25.68077 53.11908 37912 ft 424 kts 284°
2026-04-25 13:51 25.69562 53.05570 37916 ft 425 kts 284°
2026-04-25 13:51 25.71573 52.99420 37921 ft 426 kts 294°
2026-04-25 13:52 25.74246 52.93536 37917 ft 427 kts 295°
2026-04-25 13:52 25.77014 52.87709 37920 ft 427 kts 295°
2026-04-25 13:53 25.79790 52.81877 37921 ft 427 kts 295°
2026-04-25 13:53 25.82548 52.76044 37920 ft 427 kts 295°
2026-04-25 13:54 25.85277 52.70248 37923 ft 427 kts 295°
2026-04-25 13:54 25.88022 52.64405 37917 ft 427 kts 295°
2026-04-25 13:55 25.90760 52.58560 37918 ft 426 kts 294°
2026-04-25 13:55 25.93381 52.52654 37921 ft 425 kts 293°
2026-04-25 13:56 25.95951 52.46735 37920 ft 425 kts 293°
2026-04-25 13:56 25.98535 52.40823 37922 ft 424 kts 294°
2026-04-25 13:57 26.01126 52.34978 37921 ft 424 kts 294°
2026-04-25 13:57 26.03754 52.29107 37927 ft 424 kts 294°
2026-04-25 13:58 26.06377 52.23238 37920 ft 424 kts 294°
2026-04-25 13:58 26.08994 52.17363 37923 ft 423 kts 294°
2026-04-25 13:59 26.11592 52.11519 37920 ft 423 kts 294°
2026-04-25 13:59 26.14195 52.05655 37926 ft 422 kts 294°
2026-04-25 14:00 26.16373 52.00742 37915 ft 422 kts 294°
2026-04-25 14:00 26.19420 51.93930 37920 ft 423 kts 294°
2026-04-25 14:01 26.22049 51.88067 37918 ft 422 kts 293°
2026-04-25 14:01 26.24611 51.82233 37920 ft 422 kts 293°
2026-04-25 14:02 26.27205 51.76357 37916 ft 422 kts 294°
2026-04-25 14:02 26.29814 51.70502 37918 ft 421 kts 294°
2026-04-25 14:03 26.32422 51.64655 37918 ft 421 kts 294°
2026-04-25 14:03 26.35028 51.58812 37916 ft 421 kts 294°
2026-04-25 14:04 26.37570 51.52977 37914 ft 420 kts 290°
2026-04-25 14:04 26.39638 51.46896 37921 ft 419 kts 288°
2026-04-25 14:05 26.41600 51.40782 37922 ft 419 kts 288°
2026-04-25 14:05 26.43548 51.34647 37923 ft 419 kts 288°
2026-04-25 14:06 26.45499 51.28526 37930 ft 418 kts 288°
2026-04-25 14:06 26.47456 51.22399 37934 ft 418 kts 288°
2026-04-25 14:07 26.49391 51.16324 37937 ft 418 kts 288°
2026-04-25 14:07 26.51337 51.10201 37939 ft 418 kts 288°
2026-04-25 14:08 26.53280 51.04083 37943 ft 417 kts 288°
2026-04-25 14:08 26.55218 50.97971 37944 ft 417 kts 288°
2026-04-25 14:09 26.57153 50.91860 37946 ft 417 kts 288°
2026-04-25 14:09 26.59072 50.85752 37949 ft 416 kts 287°
2026-04-25 14:10 26.60949 50.79668 37950 ft 416 kts 287°
2026-04-25 14:10 26.62833 50.73554 37954 ft 416 kts 287°
2026-04-25 14:11 26.64718 50.67444 37956 ft 415 kts 287°
2026-04-25 14:11 26.66546 50.61322 37956 ft 415 kts 286°
2026-04-25 14:12 26.68343 50.55197 37958 ft 414 kts 286°
2026-04-25 14:12 26.70143 50.49078 37958 ft 414 kts 286°
2026-04-25 14:13 26.71839 50.42971 37955 ft 413 kts 284°
2026-04-25 14:13 26.73383 50.36784 37957 ft 413 kts 284°
2026-04-25 14:14 26.74930 50.30591 37954 ft 413 kts 284°
2026-04-25 14:14 26.76533 50.24419 37960 ft 413 kts 286°
2026-04-25 14:15 26.78044 50.19352 37957 ft 413 kts 287°
2026-04-25 14:15 26.80222 50.12283 37956 ft 412 kts 287°
2026-04-25 14:16 26.82059 50.06201 37954 ft 412 kts 286°
2026-04-25 14:16 26.83864 50.00112 37957 ft 412 kts 286°
2026-04-25 14:17 26.85672 49.94021 37955 ft 412 kts 286°
2026-04-25 14:17 26.87467 49.87962 37948 ft 411 kts 286°
2026-04-25 14:18 26.89264 49.81882 37953 ft 411 kts 286°
2026-04-25 14:18 26.91059 49.75800 37947 ft 411 kts 286°
2026-04-25 14:19 26.92847 49.69727 37947 ft 410 kts 286°
2026-04-25 14:19 26.94633 49.63653 37948 ft 410 kts 286°
2026-04-25 14:20 26.96418 49.57573 37949 ft 410 kts 286°
2026-04-25 14:20 26.98195 49.51507 37946 ft 409 kts 286°
2026-04-25 14:21 26.99958 49.45480 37948 ft 409 kts 286°
2026-04-25 14:21 27.02102 49.39564 37957 ft 412 kts 294°
2026-04-25 14:22 27.04842 49.33917 37942 ft 412 kts 295°
2026-04-25 14:22 27.07669 49.28323 37961 ft 412 kts 295°
2026-04-25 14:23 27.10501 49.22731 37952 ft 412 kts 295°
2026-04-25 14:23 27.13301 49.17171 37953 ft 411 kts 295°
2026-04-25 14:24 27.16107 49.11575 37962 ft 411 kts 295°
2026-04-25 14:24 27.18913 49.05969 37959 ft 411 kts 295°
2026-04-25 14:25 27.21710 49.00376 37959 ft 411 kts 295°
2026-04-25 14:25 27.24508 48.94776 37957 ft 410 kts 295°
2026-04-25 14:26 27.27281 48.89208 37959 ft 410 kts 295°
2026-04-25 14:26 27.30072 48.83600 37958 ft 410 kts 295°
2026-04-25 14:27 27.32856 48.78000 37969 ft 410 kts 294°
2026-04-25 14:27 27.35638 48.72395 37964 ft 410 kts 294°
2026-04-25 14:28 27.38415 48.66795 37968 ft 410 kts 294°
2026-04-25 14:28 27.41171 48.61231 37971 ft 409 kts 294°
2026-04-25 14:29 27.43947 48.55618 37972 ft 409 kts 294°
2026-04-25 14:29 27.46715 48.50012 37974 ft 409 kts 294°
2026-04-25 14:30 27.49478 48.44412 37973 ft 408 kts 294°
2026-04-25 14:30 27.53596 48.36048 37977 ft 408 kts 294°
2026-04-25 14:31 27.55880 48.31405 37975 ft 408 kts 294°
2026-04-25 14:31 27.58631 48.25808 37973 ft 408 kts 294°
2026-04-25 14:32 27.61383 48.20213 37974 ft 408 kts 294°
2026-04-25 14:32 27.64131 48.14613 37976 ft 408 kts 294°
2026-04-25 14:33 27.66875 48.09015 37982 ft 408 kts 294°
2026-04-25 14:33 27.69621 48.03407 37970 ft 408 kts 293°
2026-04-25 14:34 27.72344 47.97834 37976 ft 408 kts 293°
2026-04-25 14:34 27.75093 47.92184 37978 ft 408 kts 293°
2026-04-25 14:35 27.77813 47.86589 37981 ft 408 kts 293°
2026-04-25 14:35 27.80543 47.80967 37980 ft 408 kts 293°
2026-04-25 14:36 27.83265 47.75343 37974 ft 407 kts 292°
2026-04-25 14:36 27.85442 47.69486 37978 ft 403 kts 286°
2026-04-25 14:37 27.87316 47.63569 37981 ft 402 kts 285°
2026-04-25 14:37 27.89156 47.57592 37981 ft 402 kts 285°
2026-04-25 14:38 27.90998 47.51608 37981 ft 402 kts 285°
2026-04-25 14:38 27.92845 47.45621 37982 ft 403 kts 285°
2026-04-25 14:39 27.94680 47.39679 37982 ft 403 kts 285°
2026-04-25 14:39 27.96524 47.33698 37984 ft 403 kts 285°
2026-04-25 14:40 27.98367 47.27709 37979 ft 403 kts 285°
2026-04-25 14:40 28.00207 47.21719 37980 ft 403 kts 285°
2026-04-25 14:41 28.02044 47.15727 37979 ft 403 kts 285°
2026-04-25 14:41 28.03879 47.09730 37984 ft 403 kts 284°
2026-04-25 14:42 28.05401 47.04750 37983 ft 403 kts 284°
2026-04-25 14:42 28.07528 46.97776 37978 ft 403 kts 284°
2026-04-25 14:43 28.09352 46.91787 37977 ft 402 kts 284°
2026-04-25 14:43 28.11189 46.85787 37979 ft 403 kts 285°
2026-04-25 14:44 28.13170 46.79838 37979 ft 403 kts 286°
2026-04-25 14:44 28.15176 46.73947 37981 ft 402 kts 286°
2026-04-25 14:45 28.17166 46.68030 37980 ft 402 kts 285°
2026-04-25 14:45 28.19137 46.62104 37981 ft 401 kts 285°
2026-04-25 14:46 28.21105 46.56166 37982 ft 401 kts 285°
2026-04-25 14:46 28.23064 46.50245 37978 ft 400 kts 285°
2026-04-25 14:47 28.24688 46.45332 37967 ft 400 kts 285°
2026-04-25 14:47 28.26957 46.38454 37953 ft 400 kts 285°
2026-04-25 14:48 28.28906 46.32537 37940 ft 400 kts 285°
2026-04-25 14:48 28.30852 46.26620 37924 ft 400 kts 285°
2026-04-25 14:49 28.32787 46.20725 37916 ft 401 kts 285°
2026-04-25 14:49 28.34736 46.14776 37907 ft 402 kts 285°
2026-04-25 14:50 28.36727 46.08805 37908 ft 406 kts 287°
2026-04-25 14:50 28.38946 46.02880 37915 ft 408 kts 288°
2026-04-25 14:51 28.41193 45.97003 37935 ft 408 kts 288°
2026-04-25 14:51 28.43425 45.91070 37951 ft 407 kts 287°
2026-04-25 14:52 28.45631 45.85132 37973 ft 407 kts 287°
2026-04-25 14:52 28.47456 45.80197 37994 ft 407 kts 287°
2026-04-25 14:53 28.50012 45.73277 38009 ft 409 kts 287°
2026-04-25 14:53 28.52213 45.67312 38006 ft 410 kts 287°
2026-04-25 14:54 28.54421 45.61320 38005 ft 410 kts 288°
2026-04-25 14:54 28.56629 45.55322 38007 ft 411 kts 288°
2026-04-25 14:55 28.58839 45.49305 38002 ft 412 kts 287°
2026-04-25 14:55 28.61039 45.43306 37999 ft 413 kts 287°
2026-04-25 14:56 28.63249 45.37272 37998 ft 413 kts 287°
2026-04-25 14:56 28.65458 45.31229 38001 ft 413 kts 287°
2026-04-25 14:57 28.67665 45.25182 37996 ft 414 kts 287°
2026-04-25 14:57 28.69873 45.19121 37991 ft 414 kts 287°
2026-04-25 14:58 28.72081 45.13051 37991 ft 415 kts 287°
2026-04-25 14:58 28.74286 45.06979 37986 ft 415 kts 287°
2026-04-25 14:59 28.76482 45.00920 37980 ft 416 kts 287°
2026-04-25 14:59 28.78693 44.94813 37975 ft 416 kts 287°
2026-04-25 15:00 28.80898 44.88708 37968 ft 416 kts 287°
2026-04-25 15:00 28.83088 44.82640 37964 ft 416 kts 287°
2026-04-25 15:01 28.85210 44.76514 37971 ft 413 kts 282°
2026-04-25 15:01 28.86342 44.70162 37952 ft 407 kts 274°
2026-04-25 15:02 28.86922 44.63753 37952 ft 406 kts 272°
2026-04-25 15:02 28.87412 44.57349 37948 ft 405 kts 272°
2026-04-25 15:03 28.87901 44.50936 37944 ft 406 kts 272°
2026-04-25 15:03 28.88400 44.44546 37946 ft 406 kts 272°
2026-04-25 15:04 28.88906 44.38118 37943 ft 406 kts 272°
2026-04-25 15:04 28.89410 44.31687 37941 ft 407 kts 272°
2026-04-25 15:05 28.89910 44.25246 37937 ft 407 kts 272°
2026-04-25 15:06 28.90651 44.15626 37938 ft 407 kts 272°
2026-04-25 15:06 28.91144 44.09186 37936 ft 407 kts 272°
2026-04-25 15:07 28.91633 44.02740 37935 ft 407 kts 272°
2026-04-25 15:07 28.92120 43.96294 37930 ft 408 kts 272°
2026-04-25 15:08 28.92604 43.89841 37931 ft 408 kts 272°
2026-04-25 15:08 28.93082 43.83434 37933 ft 407 kts 272°
2026-04-25 15:09 28.93560 43.76980 37937 ft 407 kts 272°
2026-04-25 15:09 28.94270 43.67300 37936 ft 407 kts 272°
2026-04-25 15:10 28.94740 43.60844 37935 ft 407 kts 272°
2026-04-25 15:11 28.95437 43.51211 37936 ft 408 kts 272°
2026-04-25 15:11 28.95903 43.44748 37941 ft 408 kts 272°
2026-04-25 15:12 28.96589 43.35039 37941 ft 408 kts 272°
2026-04-25 15:12 28.96890 43.30749 37939 ft 409 kts 272°
2026-04-25 15:13 28.97719 43.18879 37936 ft 409 kts 272°
2026-04-25 15:14 28.98167 43.12400 37935 ft 409 kts 272°
2026-04-25 15:14 28.98611 43.05947 37936 ft 409 kts 272°
2026-04-25 15:15 28.99053 42.99464 37936 ft 409 kts 272°
2026-04-25 15:15 28.99494 42.92955 37935 ft 409 kts 272°
2026-04-25 15:16 28.99928 42.86502 37934 ft 409 kts 272°
2026-04-25 15:16 29.00576 42.76772 37936 ft 409 kts 272°
2026-04-25 15:17 29.01218 42.67041 37931 ft 409 kts 272°
2026-04-25 15:18 29.01638 42.60604 37933 ft 409 kts 272°
2026-04-25 15:18 29.02267 42.50876 37932 ft 408 kts 272°
2026-04-25 15:19 29.02543 42.46580 37932 ft 408 kts 272°
2026-04-25 15:19 29.03091 42.37971 37931 ft 407 kts 272°
2026-04-25 15:20 29.03499 42.31518 37926 ft 407 kts 272°
2026-04-25 15:20 29.03835 42.26157 37926 ft 406 kts 272°
2026-04-25 15:21 29.04236 42.19709 37922 ft 406 kts 272°
2026-04-25 15:21 29.04638 42.13267 37924 ft 406 kts 272°
2026-04-25 15:22 29.05030 42.06839 37921 ft 406 kts 272°
2026-04-25 15:22 29.05416 42.00439 37920 ft 405 kts 272°
2026-04-25 15:23 29.05804 41.94010 37914 ft 405 kts 272°
2026-04-25 15:23 29.06194 41.87589 37917 ft 405 kts 272°
2026-04-25 15:24 29.06568 41.81175 37913 ft 404 kts 272°
2026-04-25 15:24 29.06877 41.75843 37914 ft 404 kts 272°
2026-04-25 15:25 29.07307 41.68395 37908 ft 404 kts 272°
2026-04-25 15:25 29.07675 41.61982 37909 ft 404 kts 272°
2026-04-25 15:26 29.08042 41.55571 37904 ft 404 kts 272°
2026-04-25 15:26 29.08405 41.49152 37903 ft 404 kts 271°
2026-04-25 15:27 29.08763 41.42779 37905 ft 404 kts 271°
2026-04-25 15:28 29.09303 41.33188 37908 ft 405 kts 271°
2026-04-25 15:28 29.09657 41.26763 37912 ft 405 kts 271°
2026-04-25 15:29 29.10009 41.20333 37917 ft 405 kts 271°
2026-04-25 15:29 29.10356 41.13949 37913 ft 405 kts 271°
2026-04-25 15:30 29.10702 41.07526 37917 ft 405 kts 271°
2026-04-25 15:30 29.11046 41.01098 37928 ft 404 kts 271°
2026-04-25 15:31 29.11386 40.94682 37931 ft 404 kts 271°
2026-04-25 15:31 29.11722 40.88275 37931 ft 404 kts 271°
2026-04-25 15:32 29.12056 40.81860 37925 ft 403 kts 271°
2026-04-25 15:32 29.12385 40.75469 37933 ft 402 kts 271°
2026-04-25 15:33 29.12873 40.65883 37945 ft 402 kts 271°
2026-04-25 15:33 29.13189 40.59530 37947 ft 402 kts 271°
2026-04-25 15:34 29.13134 40.53151 37946 ft 401 kts 267°
2026-04-25 15:34 29.12976 40.47842 37946 ft 401 kts 267°
2026-04-25 15:35 29.12613 40.37257 37948 ft 400 kts 267°
2026-04-25 15:36 29.12285 40.27714 37945 ft 400 kts 267°
2026-04-25 15:36 29.12068 40.21360 37951 ft 399 kts 267°
2026-04-25 15:37 29.11849 40.15011 37948 ft 399 kts 267°
2026-04-25 15:37 29.11625 40.08664 37949 ft 399 kts 267°
2026-04-25 15:38 29.11399 40.02370 37945 ft 399 kts 266°
2026-04-25 15:38 29.11169 39.96025 37948 ft 399 kts 266°
2026-04-25 15:39 29.10939 39.89686 37949 ft 399 kts 267°
2026-04-25 15:39 29.10907 39.83338 37950 ft 399 kts 269°
2026-04-25 15:40 29.10979 39.78057 37951 ft 399 kts 269°
2026-04-25 15:40 29.11051 39.70669 37950 ft 399 kts 269°
2026-04-25 15:41 29.11079 39.64320 37947 ft 399 kts 269°
2026-04-25 15:41 29.11093 39.57978 37947 ft 398 kts 269°
2026-04-25 15:42 29.11105 39.51668 37948 ft 398 kts 269°
2026-04-25 15:42 29.11114 39.45327 37943 ft 398 kts 269°
2026-04-25 15:43 29.11122 39.38977 37947 ft 398 kts 269°
2026-04-25 15:43 29.11126 39.32685 37947 ft 398 kts 269°
2026-04-25 15:44 29.11127 39.26358 37945 ft 398 kts 269°
2026-04-25 15:44 29.11126 39.20025 37938 ft 397 kts 268°
2026-04-25 15:45 29.11121 39.13709 37940 ft 397 kts 268°
2026-04-25 15:45 29.11117 39.09520 37938 ft 397 kts 268°
2026-04-25 15:46 29.11103 39.01109 37936 ft 397 kts 268°
2026-04-25 15:46 29.11090 38.94791 37931 ft 397 kts 268°
2026-04-25 15:47 29.11073 38.88472 37926 ft 397 kts 268°
2026-04-25 15:47 29.11046 38.82158 37927 ft 397 kts 268°
2026-04-25 15:48 29.11016 38.75843 37922 ft 397 kts 268°
2026-04-25 15:48 29.10984 38.69532 37922 ft 397 kts 268°
2026-04-25 15:49 29.10949 38.63217 37920 ft 397 kts 268°
2026-04-25 15:49 29.10912 38.56900 37916 ft 397 kts 268°
2026-04-25 15:50 29.10872 38.50610 37913 ft 397 kts 268°
2026-04-25 15:50 29.10829 38.44293 37911 ft 397 kts 268°
2026-04-25 15:51 29.10798 38.40104 37918 ft 397 kts 268°
2026-04-25 15:51 29.10737 38.31695 37910 ft 397 kts 268°
2026-04-25 15:52 29.10683 38.25367 37910 ft 397 kts 268°
2026-04-25 15:52 29.10625 38.19054 37908 ft 397 kts 268°
2026-04-25 15:53 29.10566 38.12739 37906 ft 397 kts 268°
2026-04-25 15:53 29.10504 38.06422 37907 ft 397 kts 268°
2026-04-25 15:54 29.10440 38.00110 37907 ft 397 kts 268°
2026-04-25 15:54 29.10373 37.93831 37905 ft 397 kts 268°
2026-04-25 15:55 29.10302 37.87521 37905 ft 396 kts 268°
2026-04-25 15:55 29.10229 37.81219 37905 ft 396 kts 268°
2026-04-25 15:56 29.10153 37.74910 37908 ft 396 kts 268°
2026-04-25 15:56 29.10074 37.68619 37908 ft 396 kts 268°
2026-04-25 15:57 29.09993 37.62323 37912 ft 396 kts 268°
2026-04-25 15:57 29.09908 37.56064 37914 ft 396 kts 268°
2026-04-25 15:58 29.09821 37.49758 37917 ft 396 kts 268°
2026-04-25 15:58 29.09768 37.43466 37918 ft 395 kts 268°
2026-04-25 15:59 29.09731 37.37183 37921 ft 395 kts 268°
2026-04-25 15:59 29.09687 37.30940 37923 ft 395 kts 268°
2026-04-25 16:00 29.09652 37.26741 37930 ft 395 kts 268°
2026-04-25 16:00 29.09578 37.18365 37930 ft 395 kts 268°
2026-04-25 16:01 29.09519 37.12078 37919 ft 395 kts 268°
2026-04-25 16:01 29.09457 37.05833 37923 ft 395 kts 268°
2026-04-25 16:02 29.09393 36.99548 37929 ft 395 kts 268°
2026-04-25 16:02 29.09326 36.93268 37927 ft 394 kts 268°
2026-04-25 16:03 29.09255 36.86990 37920 ft 395 kts 268°
2026-04-25 16:03 29.09181 36.80705 37915 ft 396 kts 268°
2026-04-25 16:04 29.09105 36.74446 37908 ft 396 kts 268°
2026-04-25 16:04 29.09025 36.68138 37914 ft 396 kts 268°
2026-04-25 16:05 29.08943 36.61835 37910 ft 396 kts 268°
2026-04-25 16:06 29.08811 36.52360 37893 ft 397 kts 268°
2026-04-25 16:06 29.08721 36.46068 37895 ft 398 kts 268°
2026-04-25 16:07 29.08563 36.39749 37890 ft 398 kts 267°
2026-04-25 16:07 29.08371 36.33415 37889 ft 398 kts 267°
2026-04-25 16:08 29.08187 36.27125 37886 ft 398 kts 267°
2026-04-25 16:08 29.08007 36.20784 37887 ft 399 kts 267°
2026-04-25 16:09 29.07827 36.14441 37885 ft 399 kts 267°
2026-04-25 16:09 29.07643 36.08098 37885 ft 399 kts 267°
2026-04-25 16:10 29.07488 36.02820 37888 ft 399 kts 267°
2026-04-25 16:10 29.07299 35.96465 37887 ft 400 kts 266°
2026-04-25 16:11 29.07106 35.90102 37893 ft 400 kts 266°
2026-04-25 16:11 29.06910 35.83740 37900 ft 401 kts 266°
2026-04-25 16:12 29.06711 35.77374 37918 ft 400 kts 266°
2026-04-25 16:12 29.06509 35.71008 37907 ft 401 kts 266°
2026-04-25 16:13 29.06304 35.64639 37916 ft 401 kts 266°
2026-04-25 16:13 29.06094 35.58267 37921 ft 401 kts 266°
2026-04-25 16:14 29.05881 35.51882 37928 ft 402 kts 266°
2026-04-25 16:14 29.05669 35.45547 37927 ft 402 kts 266°
2026-04-25 16:15 29.05452 35.39156 37925 ft 402 kts 266°
2026-04-25 16:15 29.05232 35.32769 37930 ft 403 kts 266°
2026-04-25 16:16 29.05009 35.26370 37918 ft 403 kts 266°
2026-04-25 16:16 29.04782 35.19965 37909 ft 403 kts 266°
2026-04-25 16:17 29.04551 35.13547 37903 ft 404 kts 266°
2026-04-25 16:17 29.04315 35.07113 37893 ft 405 kts 266°
2026-04-25 16:18 29.04078 35.00724 37888 ft 405 kts 266°
2026-04-25 16:18 29.03836 34.94285 37886 ft 406 kts 266°
2026-04-25 16:19 29.03592 34.87832 37876 ft 406 kts 266°
2026-04-25 16:19 29.03368 34.81369 37879 ft 407 kts 267°
2026-04-25 16:20 29.03807 34.74957 37879 ft 411 kts 278°
2026-04-25 16:20 29.04563 34.71800 37883 ft 415 kts 284°
2026-04-25 16:20 29.07252 34.65856 37883 ft 428 kts 298°
2026-04-25 16:21 29.09178 34.63215 37884 ft 437 kts 306°
2026-04-25 16:21 29.14025 34.58804 37884 ft 451 kts 316°
2026-04-25 16:22 29.19254 34.54842 37892 ft 454 kts 317°
2026-04-25 16:22 29.24555 34.50893 37897 ft 454 kts 317°
2026-04-25 16:23 29.29837 34.46910 37904 ft 454 kts 317°
2026-04-25 16:23 29.35119 34.42889 37906 ft 455 kts 317°
2026-04-25 16:24 29.40398 34.38855 37911 ft 457 kts 317°
2026-04-25 16:24 29.45684 34.34815 37912 ft 457 kts 317°
2026-04-25 16:25 29.50984 34.30760 37909 ft 457 kts 317°
2026-04-25 16:25 29.56257 34.26721 37905 ft 458 kts 318°
2026-04-25 16:26 29.61667 34.22787 37908 ft 464 kts 322°
2026-04-25 16:26 29.67363 34.19240 37902 ft 466 kts 323°
2026-04-25 16:27 29.73113 34.15748 37906 ft 467 kts 323°
2026-04-25 16:27 29.78788 34.12308 37896 ft 467 kts 324°
2026-04-25 16:28 29.84500 34.08831 37891 ft 467 kts 323°
2026-04-25 16:28 29.90245 34.05323 37897 ft 468 kts 324°
2026-04-25 16:29 29.95998 34.01804 37888 ft 468 kts 324°
2026-04-25 16:29 30.01752 33.98280 37886 ft 468 kts 324°
2026-04-25 16:30 30.06537 33.95345 37888 ft 468 kts 324°
2026-04-25 16:30 30.13272 33.91211 37890 ft 469 kts 324°
2026-04-25 16:31 30.19034 33.87668 37884 ft 469 kts 324°
2026-04-25 16:31 30.24770 33.84137 37883 ft 470 kts 324°
2026-04-25 16:32 30.30549 33.80575 37871 ft 470 kts 324°
2026-04-25 16:32 30.36332 33.77005 37883 ft 471 kts 324°
2026-04-25 16:33 30.42114 33.73431 37888 ft 471 kts 324°
2026-04-25 16:33 30.47909 33.69844 37884 ft 472 kts 324°
2026-04-25 16:34 30.53675 33.66270 37891 ft 473 kts 324°
2026-04-25 16:34 30.59492 33.62659 37888 ft 474 kts 324°
2026-04-25 16:35 30.65315 33.59040 37891 ft 474 kts 324°
2026-04-25 16:35 30.71145 33.55412 37884 ft 475 kts 324°
2026-04-25 16:36 30.76930 33.51809 37887 ft 474 kts 324°
2026-04-25 16:36 30.82749 33.48176 37894 ft 475 kts 324°
2026-04-25 16:37 30.88566 33.44540 37895 ft 475 kts 324°
2026-04-25 16:37 30.94295 33.40955 37899 ft 475 kts 324°
2026-04-25 16:38 30.99966 33.37402 37895 ft 475 kts 325°
2026-04-25 16:38 31.05796 33.33743 37895 ft 475 kts 325°
2026-04-25 16:39 31.11586 33.30105 37897 ft 476 kts 325°
2026-04-25 16:39 31.17415 33.26436 37899 ft 476 kts 325°
2026-04-25 16:40 31.23247 33.22761 37901 ft 476 kts 325°
2026-04-25 16:40 31.29088 33.19076 37897 ft 477 kts 325°
2026-04-25 16:41 31.35069 33.15642 37900 ft 485 kts 334°
2026-04-25 16:41 31.45248 33.13746 37904 ft 501 kts 351°
2026-04-25 16:42 31.52239 33.13406 37903 ft 503 kts 352°
2026-04-25 16:42 31.59232 33.13118 37905 ft 503 kts 352°
2026-04-25 16:43 31.66233 33.12794 37902 ft 503 kts 352°
2026-04-25 16:43 31.73175 33.12390 37901 ft 500 kts 348°
2026-04-25 16:44 31.79800 33.10454 37892 ft 484 kts 330°
2026-04-25 16:44 31.85376 33.06326 37923 ft 467 kts 312°
2026-04-25 16:45 31.89957 33.00944 37909 ft 464 kts 308°
2026-04-25 16:45 31.94362 32.95387 37908 ft 464 kts 307°
2026-04-25 16:46 31.98768 32.89817 37906 ft 465 kts 307°
2026-04-25 16:46 32.01702 32.86134 37910 ft 465 kts 308°
2026-04-25 16:47 32.07613 32.78741 37909 ft 465 kts 308°
2026-04-25 16:47 32.12058 32.73179 37908 ft 466 kts 308°
2026-04-25 16:48 32.16504 32.67604 37916 ft 466 kts 308°
2026-04-25 16:48 32.20920 32.62058 37913 ft 466 kts 308°
2026-04-25 16:49 32.25359 32.56473 37911 ft 466 kts 308°
2026-04-25 16:49 32.29803 32.50874 37911 ft 466 kts 308°
2026-04-25 16:50 32.34237 32.45280 37907 ft 466 kts 308°
2026-04-25 16:50 32.38677 32.39669 37906 ft 466 kts 308°
2026-04-25 16:51 32.43104 32.34066 37910 ft 466 kts 308°
2026-04-25 16:51 32.46033 32.30354 37909 ft 466 kts 308°
2026-04-25 16:52 32.51912 32.22892 37904 ft 465 kts 308°
2026-04-25 16:52 32.56322 32.17284 37904 ft 464 kts 308°
2026-04-25 16:53 32.63439 32.09412 37909 ft 475 kts 322°
2026-04-25 16:54 32.69513 32.06109 37891 ft 487 kts 336°
2026-04-25 16:54 32.76016 32.03718 37899 ft 489 kts 338°
2026-04-25 16:55 32.82521 32.01477 37903 ft 490 kts 338°
2026-04-25 16:55 32.89107 31.99180 37907 ft 490 kts 338°
2026-04-25 16:56 32.95603 31.96877 37908 ft 490 kts 338°
2026-04-25 16:56 33.02137 31.94542 37908 ft 490 kts 338°
2026-04-25 16:57 33.08683 31.92199 37906 ft 490 kts 338°
2026-04-25 16:57 33.15187 31.89869 37912 ft 491 kts 338°
2026-04-25 16:58 33.21741 31.87519 37911 ft 491 kts 338°
2026-04-25 16:58 33.28289 31.85167 37912 ft 491 kts 338°
2026-04-25 16:59 33.33723 31.83212 37914 ft 491 kts 338°
2026-04-25 16:59 33.41324 31.80473 37911 ft 491 kts 338°
2026-04-25 17:00 33.46814 31.78492 37915 ft 491 kts 338°
2026-04-25 17:00 33.53315 31.76147 37915 ft 491 kts 338°
2026-04-25 17:01 33.59859 31.73775 37914 ft 491 kts 337°
2026-04-25 17:01 33.66421 31.71393 37909 ft 491 kts 337°
2026-04-25 17:02 33.72971 31.69013 37914 ft 491 kts 337°
2026-04-25 17:02 33.79478 31.66646 37915 ft 492 kts 337°
2026-04-25 17:03 33.86036 31.64261 37918 ft 492 kts 337°
2026-04-25 17:03 33.92596 31.61861 37919 ft 491 kts 337°
2026-04-25 17:04 33.99108 31.59476 37920 ft 492 kts 337°
2026-04-25 17:04 34.05668 31.57071 37919 ft 492 kts 337°
2026-04-25 17:05 34.12224 31.54664 37920 ft 491 kts 337°
2026-04-25 17:05 34.22001 31.51068 37916 ft 492 kts 337°
2026-04-25 17:06 34.28546 31.48655 37923 ft 492 kts 337°
2026-04-25 17:06 34.35100 31.46236 37927 ft 492 kts 337°
2026-04-25 17:07 34.41650 31.43814 37926 ft 492 kts 337°
2026-04-25 17:07 34.48204 31.41387 37918 ft 492 kts 337°
2026-04-25 17:08 34.54758 31.38956 37914 ft 492 kts 337°
2026-04-25 17:08 34.61310 31.36521 37922 ft 492 kts 337°
2026-04-25 17:09 34.67764 31.34119 37919 ft 492 kts 337°
2026-04-25 17:09 34.74315 31.31677 37922 ft 493 kts 337°
2026-04-25 17:10 34.80889 31.29222 37923 ft 493 kts 337°
2026-04-25 17:10 34.87380 31.26672 37927 ft 492 kts 334°
2026-04-25 17:11 34.93888 31.24065 37922 ft 493 kts 334°
2026-04-25 17:11 35.00439 31.21543 37926 ft 494 kts 335°
2026-04-25 17:12 35.07006 31.19071 37923 ft 494 kts 335°
2026-04-25 17:12 35.13572 31.16605 37930 ft 494 kts 335°
2026-04-25 17:13 35.19076 31.14648 37929 ft 494 kts 338°
2026-04-25 17:13 35.26538 31.12021 37928 ft 493 kts 338°
2026-04-25 17:14 35.33101 31.09593 37934 ft 492 kts 337°
2026-04-25 17:14 35.39639 31.07115 37936 ft 491 kts 337°
2026-04-25 17:15 35.46173 31.04626 37937 ft 491 kts 337°
2026-04-25 17:15 35.52708 31.02135 37937 ft 490 kts 337°
2026-04-25 17:16 35.59180 30.99669 37939 ft 490 kts 337°
2026-04-25 17:16 35.65690 30.97184 37940 ft 490 kts 337°
2026-04-25 17:17 35.72200 30.94695 37941 ft 489 kts 337°
2026-04-25 17:17 35.78708 30.92203 37944 ft 490 kts 337°
2026-04-25 17:18 35.85224 30.89702 37934 ft 490 kts 337°
2026-04-25 17:18 35.91702 30.87213 37948 ft 490 kts 337°
2026-04-25 17:19 35.98238 30.84696 37945 ft 491 kts 337°
2026-04-25 17:19 36.04893 30.82649 37952 ft 499 kts 348°
2026-04-25 17:20 36.11878 30.82116 37951 ft 503 kts 353°
2026-04-25 17:20 36.18836 30.81890 37949 ft 504 kts 354°
2026-04-25 17:21 36.25850 30.81702 37954 ft 504 kts 354°
2026-04-25 17:21 36.32864 30.81489 37943 ft 504 kts 354°
2026-04-25 17:22 36.38693 30.81297 37945 ft 503 kts 354°
2026-04-25 17:22 36.46881 30.81024 37945 ft 503 kts 354°
2026-04-25 17:23 36.53889 30.80779 37946 ft 503 kts 354°
2026-04-25 17:23 36.60836 30.80535 37948 ft 502 kts 354°
2026-04-25 17:24 36.67825 30.80288 37905 ft 501 kts 356°
2026-04-25 17:24 36.74806 30.80040 37962 ft 500 kts 356°
2026-04-25 17:25 36.81761 30.79804 37968 ft 499 kts 356°
2026-04-25 17:25 36.88663 30.79568 37967 ft 499 kts 356°
2026-04-25 17:26 36.95598 30.79248 37968 ft 497 kts 353°
2026-04-25 17:26 37.02484 30.78367 37965 ft 496 kts 351°
2026-04-25 17:27 37.09348 30.77369 37969 ft 496 kts 352°
2026-04-25 17:27 37.13898 30.76751 37975 ft 496 kts 352°
2026-04-25 17:28 37.23040 30.75589 37989 ft 496 kts 352°
2026-04-25 17:28 37.29908 30.74737 38003 ft 495 kts 352°
2026-04-25 17:29 37.36773 30.73880 38009 ft 495 kts 352°
2026-04-25 17:29 37.43625 30.73015 38019 ft 495 kts 352°